SCP
1 1 2 3 4 4 4 3 3 3 3 3 2 1 1 0 0 0 0 1 1 1 1 1 1 1 1 2 2 2 2 2 2 2 2 2 2 2 2 2 1 0 0
0 1 1 2 3 3 3 3 3 3 3 3 2 2 1 0 0 0 0 0 0 0 1 1 1 1 1 2 2 2 2 2 2 2 2 2 1 1 1 1 1 0 0
0 0 0 0 1 2 2 2 3 3 3 3 2 2 1 1 1 1 0 0 0 0 0 0 1 1 1 1 2 1 1 1 2 1 1 1 1 1 1 0 0 0 0
0 0 0 0 0 0 1 1 2 2 2 2 2 2 1 1 1 1 1 1 0 0 0 0 0 0 1 1 1 1 1 1 1 1 0 0 0 0 0 0 0 0 0
0 0 0 0 0 0 0 1 1 2 2 2 2 2 1 1 1 1 0 0 0 0 0 0 0 0 0 0 1 1 1 1 0 0 0 0 0 0 0 0 0 0 0
0 0 0 0 0 0 0 0 0 1 1 2 2 2 1 1 0 0 0 0 0 0 0 0 0 0 0 0 0 0 0 0 0 0 0 0 0 0 0 0 0 0 0
0 0 0 0 0 0 0 0 0 1 1 1 2 2 1 1 0 0 0 0 0 0 0 0 0 0 0 0 0 0 0 0 0 0 0 0 0 0 0 0 0 0 0
0 0 0 0 0 0 0 0 0 1 1 1 1 2 1 1 0 0 0 0 0 0 0 0 0 0 0 0 0 0 0 0 0 0 0 0 0 0 0 0 0 0 0
0 0 0 0 0 0 0 0 0 0 1 1 1 1 1 1 0 0 0 0 0 0 0 0 0 0 0 0 0 0 0 0 0 0 0 0 0 0 0 0 0 0 0
0 0 0 0 0 0 0 0 0 0 0 0 1 1 1 1 0 0 0 0 0 0 0 0 0 0 0 0 0 0 0 0 0 0 0 0 0 0 0 0 0 0 0
0 0 0 0 0 0 0 0 0 0 0 0 0 1 1 1 0 0 0 0 0 0 0 0 0 0 0 0 0 0 0 0 0 0 0 0 0 0 0 0 0 0 0
0 0 0 0 0 0 0 0 0 0 0 0 0 1 1 1 0 0 0 0 0 0 0 0 0 0 0 0 0 0 0 0 0 0 0 0 0 0 0 0 0 0 0
0 0 0 0 0 0 0 0 0 0 0 0 0 1 1 1 0 0 0 0 0 0 0 0 0 0 0 0 0 0 0 0 0 0 0 0 0 0 0 0 0 0 0
0 0 0 0 0 0 0 0 0 0 0 0 0 0 1 1 0 0 0 0 0 0 0 0 0 0 0 0 0 0 0 0 0 0 0 0 0 0 0 0 0 0 0
0 0 0 0 0 0 0 0 0 0 0 0 0 0 0 0 0 0 0 0 0 0 0 0 0 0 0 0 0 0 0 0 0 0 0 0 0 0 0 0 0 0 0
0 0 0 0 0 0 0 0 0 0 0 0 0 0 0 0 0 0 0 0 0 0 0 0 0 0 0 0 0 0 0 0 0 0 0 0 0 0 0 0 0 0 0
0 0 0 0 0 0 0 0 0 0 0 0 0 0 0 0 0 0 0 0 0 0 0 0 0 0 0 0 0 0 0 0 0 0 0 0 0 0 0 0 0 0 0
0 0 0 0 0 0 0 0 0 0 0 0 0 0 0 0 0 0 0 0 0 0 0 0 0 0 0 0 0 0 0 0 0 0 0 0 0 0 0 0 0 0 0
0 0 0 0 0 0 0 0 0 0 0 0 0 0 0 0 0 0 0 0 0 0 0 0 0 0 0 0 0 0 0 0 0 0 0 0 0 0 0 0 0 0 0
0 0 0 0 0 0 0 0 0 0 0 0 0 0 0 0 0 0 0 0 0 0 0 0 0 0 0 0 0 0 0 0 0 0 0 0 0 0 0 0 0 0 0
0 0 0 0 0 0 0 0 0 0 0 0 0 0 0 0 0 0 0 0 0 0 0 0 0 0 0 0 0 0 0 0 0 0 0 0 0 0 0 0 0 0 0
0 0 0 0 0 0 0 0 0 0 0 0 0 0 0 0 0 0 0 0 0 0 0 0 0 0 0 0 0 0 0 0 0 0 0 0 0 0 0 0 0 0 0
0 0 0 0 0 0 0 0 0 0 0 0 0 0 0 0 0 0 0 0 0 0 0 0 0 0 0 0 0 0 0 0 0 0 0 0 0 0 0 0 0 0 0
0 0 0 0 0 0 0 0 0 0 0 0 0 0 0 0 0 0 0 0 0 0 0 0 0 0 0 0 0 0 0 0 0 0 0 0 0 0 0 0 0 0 0
0 0 0 0 0 0 0 0 0 0 0 0 0 0 0 0 0 0 0 0 0 0 0 0 0 0 0 0 0 0 0 0 0 0 0 0 0 0 0 0 0 0 0
0 0 0 0 0 0 0 0 0 0 0 0 0 0 0 0 0 0 0 0 0 0 0 0 0 0 0 0 0 0 0 0 0 0 0 0 0 0 0 0 0 0 0
Wind_Speed
12 12 11 11 10 10 9 10 10 10 10 10 10 10 11 11 10 9 11 11 10 9 8 8 8 7 5 5 4 4 4 4 5 5 4 4 4 5 5 6 7 8 9
11 11 12 12 12 12 11 12 11 12 11 11 11 11 11 11 10 10 10 10 9 8 7 6 5 4 4 2 2 2 2 5 8 9 5 3 4 5 6 7 7 8 9
11 11 12 12 13 13 13 13 13 12 12 12 11 11 11 10 10 9 8 8 6 5 4 3 2 1 0 1 2 3 4 5 6 8 6 4 4 6 8 9 10 8 10
10 10 10 11 12 13 13 14 14 13 13 13 13 12 11 10 9 8 6 6 4 2 1 0 1 2 3 4 4 5 6 7 7 8 7 6 6 8 8 8 8 7 7
11 11 10 10 10 12 12 13 13 14 14 13 14 13 12 10 8 7 6 5 4 2 2 2 4 6 7 5 5 6 6 6 6 6 7 7 7 7 7 7 8 8 7
13 13 12 12 12 12 12 13 13 13 13 13 14 14 13 9 5 3 6 5 4 4 4 5 6 8 10 10 10 7 4 5 6 6 6 7 7 7 6 6 8 7 7
16 15 15 14 14 13 13 12 12 13 13 13 13 14 14 9 10 8 6 5 5 5 6 6 6 8 9 10 10 9 8 7 4 5 9 8 8 6 6 6 4 5 6
17 17 16 15 16 14 13 13 12 11 11 10 12 13 13 11 13 11 8 7 6 6 6 7 8 9 9 10 10 9 8 8 6 8 9 8 8 6 5 7 8 8 6
18 17 17 16 16 15 15 14 12 11 11 10 10 12 13 11 15 14 12 9 8 8 8 8 9 9 8 7 10 11 10 8 12 15 13 12 11 8 3 5 6 6 7
18 17 16 16 16 16 16 14 13 11 11 10 9 10 12 12 16 16 14 9 9 9 7 7 6 9 9 6 10 11 11 11 11 11 10 9 8 6 3 1 2 4 6
18 17 16 16 16 16 16 14 13 12 11 10 9 9 11 12 17 18 15 9 10 10 9 8 8 9 7 4 6 9 11 11 11 10 9 8 7 6 5 6 6 4 4
17 17 17 17 16 14 14 13 12 11 11 10 7 6 7 9 15 17 15 9 7 9 9 9 10 10 8 5 5 11 11 9 8 8 7 7 7 7 7 8 9 9 8
18 18 17 17 15 14 14 14 12 11 9 7 5 5 5 7 10 16 14 8 6 6 8 13 14 14 12 8 11 11 10 7 7 7 6 7 7 8 7 7 8 7 7
18 16 15 15 15 14 12 12 11 9 8 6 4 4 4 6 9 13 12 10 11 11 12 15 13 9 8 12 10 9 7 5 5 6 7 7 7 7 6 6 6 6 7
17 15 14 14 13 12 12 10 10 8 5 5 4 3 4 6 9 14 15 13 12 13 14 12 11 11 11 10 9 7 6 6 6 7 7 7 7 6 5 5 3 4 5
14 14 11 10 10 10 10 10 11 9 7 8 6 5 4 4 6 13 14 14 15 18 14 12 11 10 10 10 9 9 8 8 7 7 7 7 7 6 6 6 5 4 5
14 12 9 9 9 10 9 9 8 8 9 10 10 9 8 6 10 13 16 19 18 17 11 11 10 10 10 9 9 9 8 8 7 7 7 7 6 7 6 5 5 4 4
13 12 10 9 9 9 9 8 7 6 7 7 7 9 10 12 13 15 18 16 12 11 10 11 10 10 9 9 9 8 9 9 7 7 7 7 7 7 6 6 5 5 4
8 7 8 8 8 9 9 8 7 6 5 4 4 6 9 13 15 17 18 13 14 13 10 10 10 10 10 9 8 8 9 8 8 7 7 7 6 6 6 6 6 5 1
6 8 8 6 7 8 8 8 6 5 4 4 4 6 9 10 10 11 11 11 13 13 11 10 10 10 10 9 9 9 9 9 9 7 8 7 6 6 6 6 6 7 5
4 6 10 8 7 8 7 6 5 4 4 4 4 8 14 13 13 14 13 12 11 12 11 10 10 10 10 9 9 10 10 9 9 8 8 8 7 6 6 6 6 5 5
2 3 5 6 6 5 4 4 4 4 4 5 4 9 15 13 13 14 13 12 11 10 10 10 10 10 10 10 10 10 10 10 9 9 8 8 7 7 6 6 6 5 5
2 3 4 4 3 3 4 4 4 4 4 5 6 10 13 12 13 14 14 13 11 10 10 9 10 10 10 10 10 10 10 10 9 9 9 8 8 7 6 6 7 6 6
1 1 2 2 2 2 3 3 3 4 4 6 8 12 13 13 14 14 14 12 11 10 10 10 10 12 14 11 9 10 9 9 10 10 11 9 9 8 8 7 8 9 8
0 1 2 2 2 2 2 3 3 4 5 8 11 13 14 13 13 13 13 12 12 11 12 11 10 12 16 16 13 10 8 7 5 6 11 9 10 9 9 9 8 9 9
0 1 1 1 1 1 2 2 3 5 8 10 12 13 13 13 12 12 12 11 11 10 10 10 12 13 15 14 14 10 10 9 6 4 7 9 11 10 10 9 11 11 11
Wind_Direction
355 350 343 335 321 305 288 280 273 267 265 263 268 275 280 284 287 290 289 288 281 281 279 272 269 267 261 255 246 232 214 184 138 113 106 108 106 108 105 100 102 95 89
341 337 336 334 331 322 310 297 284 271 262 258 259 266 272 277 282 286 289 290 287 286 284 280 279 273 261 258 239 198 150 143 138 131 126 125 116 116 112 106 100 93 94
328 326 326 325 326 324 320 311 297 281 267 260 255 256 264 271 276 278 284 286 285 288 288 286 286 281 214 111 112 114 114 122 125 130 130 131 131 133 126 116 112 115 109
310 309 308 310 312 312 313 313 305 291 274 261 254 252 255 259 263 266 269 272 269 279 300 303 63 90 103 113 111 116 120 123 130 133 137 144 144 148 141 134 129 125 118
286 287 286 288 292 296 301 305 305 296 279 265 256 250 246 247 247 250 247 241 230 184 124 95 85 86 93 99 111 118 125 132 139 143 144 146 146 155 149 138 123 123 118
280 278 278 277 278 282 288 294 297 296 287 272 257 249 242 238 158 190 253 222 202 170 138 118 115 112 101 94 93 92 103 143 146 146 139 132 135 135 128 141 145 141 127
283 280 277 274 272 272 274 281 288 296 295 283 264 249 240 215 163 186 225 222 183 158 144 143 128 118 126 119 107 98 79 63 92 119 118 119 120 121 138 132 107 110 105
284 281 278 276 275 274 273 275 281 289 294 289 275 255 240 204 172 181 192 200 164 152 147 137 130 136 134 135 135 124 110 81 81 98 103 104 107 108 108 106 114 120 124
281 280 279 278 277 276 272 272 276 282 287 286 279 263 242 201 173 177 190 180 161 155 149 143 145 140 134 144 138 129 119 102 72 71 74 78 68 55 49 152 164 156 132
280 280 279 277 276 274 272 271 272 275 278 282 277 265 245 211 175 178 197 182 162 154 144 138 135 137 149 168 152 144 137 130 126 116 108 116 112 101 37 84 158 147 135
280 278 276 274 272 270 267 263 263 266 273 277 277 268 247 219 175 179 196 190 166 167 160 158 134 133 153 174 177 153 142 141 140 138 134 131 128 126 114 79 41 41 82
278 276 273 270 267 268 261 256 256 262 265 268 270 270 250 218 182 180 190 208 179 170 163 144 127 139 144 151 135 123 138 160 152 150 144 136 128 114 95 82 68 61 55
277 274 271 267 262 262 260 255 251 249 253 259 267 256 243 219 177 166 172 175 166 158 124 111 127 137 135 120 122 138 168 175 156 151 139 126 112 107 114 113 107 105 99
273 271 267 264 259 253 248 247 248 248 248 247 256 249 232 216 181 168 168 156 136 124 117 119 129 141 127 118 145 173 187 159 155 142 130 127 130 147 154 146 146 149 133
270 266 263 261 258 256 247 242 249 251 251 249 251 239 224 213 190 172 169 168 166 144 141 145 149 151 151 154 159 157 150 149 152 140 141 147 152 150 139 121 121 133 126
265 260 255 252 252 246 241 233 216 229 176 193 218 227 227 228 180 164 160 145 137 144 154 155 158 159 158 156 155 155 158 157 153 151 154 156 153 148 143 145 150 131 118
260 254 249 246 246 243 237 232 222 201 198 203 209 213 204 177 167 156 142 135 141 157 168 159 162 161 158 156 157 156 152 144 150 156 156 154 151 149 150 148 140 133 122
257 248 240 239 239 240 237 230 227 218 201 198 196 196 179 168 162 148 135 134 151 181 179 165 165 162 160 159 156 150 143 147 162 159 154 155 157 157 156 157 149 139 129
252 236 230 232 229 232 232 226 223 221 220 193 161 158 161 151 147 148 150 165 171 187 184 170 168 166 163 161 155 151 151 156 160 161 155 161 164 165 165 166 135 102 192
239 226 227 227 226 226 226 219 213 211 202 186 166 149 144 141 146 160 177 188 180 186 184 171 170 167 167 165 159 160 158 155 159 173 159 167 172 171 164 173 158 168 186
226 203 208 221 221 221 217 212 207 203 189 188 168 160 163 162 159 168 183 192 190 185 184 174 170 173 172 170 168 169 166 163 170 174 165 171 177 175 173 174 174 185 177
214 200 203 214 215 212 206 204 205 208 190 185 165 160 173 172 166 171 183 190 194 189 182 179 177 177 177 178 175 174 175 174 174 175 174 176 178 182 184 183 185 190 192
212 201 201 205 204 181 215 222 222 211 191 192 172 162 174 174 170 175 184 188 190 187 181 182 183 180 179 180 180 182 182 180 179 180 184 185 187 191 195 195 201 209 216
213 212 208 208 220 226 234 237 223 196 198 182 166 164 172 173 172 178 183 187 187 184 179 182 188 185 181 181 184 189 189 182 183 186 195 201 201 201 204 208 217 222 228
179 213 224 229 233 240 241 230 216 203 181 163 160 164 170 172 172 178 181 183 182 181 179 181 187 186 185 190 193 194 159 148 182 198 188 209 218 218 223 225 229 234 240
156 221 230 227 226 216 227 221 190 163 152 150 156 162 167 169 171 174 176 176 175 176 179 186 191 187 186 195 200 180 144 154 175 223 231 212 216 223 228 237 242 245 249